SBI2616 UNTT-UUDD

Flight info

Callsign SBI2616
Flight time N/A
Altitude 36000
Route K0839F360 NN A300 ML A305 ABITI M864 AGNOK/K0822F280 M864 KERUN P164 IDMOR M864 EKSER/K0846F380 M864 IBROT T535 OKNAN T787 URAGO
Aircraft A319/M-VGDW/C

Departure

Time 2026-04-26 17:38
Airport Tomsk Kamov Airport (UNTT)

Arrival

Time N/A
Airport Domodedovo International Airport (UUDD)
Time Latitude Longitude Altitude Speed Heading
2026-04-26 17:28 56.38758 85.21022 570 ft 0 kts 300°
2026-04-26 17:31 56.38758 85.21023 570 ft 0 kts 300°
2026-04-26 17:31 56.38758 85.21022 570 ft 0 kts 300°
2026-04-26 17:31 56.38753 85.21038 571 ft 2 kts 300°
2026-04-26 17:32 56.38746 85.21060 572 ft 2 kts 300°
2026-04-26 17:32 56.38739 85.21082 572 ft 2 kts 300°
2026-04-26 17:32 56.38729 85.21103 573 ft 2 kts 334°
2026-04-26 17:33 56.38714 85.21108 573 ft 2 kts 11°
2026-04-26 17:33 56.38709 85.21105 573 ft 1 kts 24°
2026-04-26 17:33 56.38705 85.21102 573 ft 1 kts 36°
2026-04-26 17:34 56.38701 85.21095 573 ft 0 kts 35°
2026-04-26 17:35 56.38705 85.21102 573 ft 2 kts 35°
2026-04-26 17:35 56.38715 85.21114 573 ft 2 kts 35°
2026-04-26 17:35 56.38750 85.21158 572 ft 9 kts 33°
2026-04-26 17:35 56.38824 85.21248 569 ft 16 kts 34°
2026-04-26 17:36 56.38929 85.21377 568 ft 19 kts 35°
2026-04-26 17:36 56.39041 85.21521 564 ft 20 kts 30°
2026-04-26 17:36 56.39173 85.21661 559 ft 23 kts 31°
2026-04-26 17:36 56.39315 85.21823 550 ft 18 kts 33°
2026-04-26 17:37 56.39308 85.21983 548 ft 15 kts 117°
2026-04-26 17:37 56.39244 85.22123 549 ft 14 kts 158°
2026-04-26 17:37 56.39171 85.22076 554 ft 9 kts 211°
2026-04-26 17:38 56.38622 85.21447 577 ft 110 kts 214°
2026-04-26 17:38 56.37825 85.20502 659 ft 157 kts 211°
2026-04-26 17:38 56.36939 85.19408 1339 ft 153 kts 210°
2026-04-26 17:38 56.36033 85.18616 2172 ft 145 kts 191°
2026-04-26 17:39 56.35092 85.18140 2855 ft 150 kts 210°
2026-04-26 17:39 56.34334 85.16648 3317 ft 174 kts 227°
2026-04-26 17:39 56.33556 85.14798 3701 ft 197 kts 228°
2026-04-26 17:39 56.32682 85.12783 4212 ft 214 kts 227°
2026-04-26 17:40 56.31720 85.10635 4827 ft 227 kts 228°
2026-04-26 17:40 56.31065 85.09195 5358 ft 230 kts 228°
2026-04-26 17:40 56.29701 85.06245 6503 ft 233 kts 229°
2026-04-26 17:40 56.28662 85.04022 7324 ft 237 kts 229°
2026-04-26 17:41 56.27601 85.01761 8082 ft 241 kts 229°
2026-04-26 17:41 56.26511 84.99456 8830 ft 246 kts 229°
2026-04-26 17:41 56.25402 84.97117 9575 ft 251 kts 229°
2026-04-26 17:41 56.24258 84.94707 10273 ft 257 kts 229°
2026-04-26 17:42 56.23074 84.92217 10659 ft 274 kts 228°
2026-04-26 17:42 56.21785 84.89520 11000 ft 292 kts 228°
2026-04-26 17:42 56.20432 84.86689 11318 ft 309 kts 228°
2026-04-26 17:42 56.19036 84.83730 11869 ft 317 kts 231°
2026-04-26 17:43 56.18015 84.80190 12552 ft 326 kts 249°
2026-04-26 17:43 56.17713 84.76154 13202 ft 339 kts 267°
2026-04-26 17:43 56.17990 84.71883 13832 ft 347 kts 272°
2026-04-26 17:43 56.18338 84.67614 14433 ft 351 kts 272°
2026-04-26 17:44 56.18692 84.63306 15048 ft 354 kts 272°
2026-04-26 17:44 56.19051 84.58902 15675 ft 357 kts 272°
2026-04-26 17:44 56.19402 84.54528 16275 ft 359 kts 272°
2026-04-26 17:44 56.19760 84.50066 16870 ft 362 kts 272°
2026-04-26 17:45 56.20117 84.45622 17425 ft 365 kts 271°
2026-04-26 17:45 56.20473 84.41138 17959 ft 368 kts 271°
2026-04-26 17:45 56.20831 84.36568 18495 ft 370 kts 271°
2026-04-26 17:45 56.21186 84.31995 19002 ft 373 kts 270°
2026-04-26 17:46 56.21543 84.27359 19525 ft 375 kts 271°
2026-04-26 17:46 56.21897 84.22734 20042 ft 377 kts 271°
2026-04-26 17:46 56.22251 84.18075 20508 ft 380 kts 271°
2026-04-26 17:46 56.22610 84.13336 20952 ft 384 kts 271°
2026-04-26 17:47 56.22969 84.08608 21392 ft 387 kts 271°
2026-04-26 17:47 56.23208 84.05421 21684 ft 389 kts 271°
2026-04-26 17:47 56.23672 83.98939 22253 ft 392 kts 270°
2026-04-26 17:47 56.23902 83.94048 22696 ft 392 kts 268°
2026-04-26 17:48 56.24100 83.89183 23124 ft 394 kts 268°
2026-04-26 17:48 56.24294 83.84239 23528 ft 397 kts 268°
2026-04-26 17:48 56.24482 83.79321 23949 ft 399 kts 268°
2026-04-26 17:48 56.24673 83.74326 24397 ft 400 kts 268°
2026-04-26 17:49 56.24859 83.69390 24816 ft 401 kts 268°
2026-04-26 17:49 56.25045 83.64359 25221 ft 403 kts 268°
2026-04-26 17:49 56.25228 83.59372 25596 ft 405 kts 268°
2026-04-26 17:49 56.25409 83.54286 25984 ft 406 kts 268°
2026-04-26 17:50 56.25588 83.49256 26348 ft 408 kts 268°
2026-04-26 17:50 56.25763 83.44208 26716 ft 409 kts 268°
2026-04-26 17:50 56.25940 83.39084 27056 ft 411 kts 268°
2026-04-26 17:50 56.26115 83.33991 27403 ft 412 kts 266°
2026-04-26 17:51 56.26291 83.28814 27752 ft 414 kts 267°
2026-04-26 17:51 56.26466 83.23688 28086 ft 415 kts 266°
2026-04-26 17:51 56.26639 83.18556 28435 ft 416 kts 266°
2026-04-26 17:51 56.26814 83.13325 28746 ft 417 kts 266°
2026-04-26 17:52 56.26984 83.08139 29102 ft 417 kts 266°
2026-04-26 17:52 56.27149 83.02988 29518 ft 415 kts 266°
2026-04-26 17:52 56.27312 82.97804 29921 ft 414 kts 266°
2026-04-26 17:52 56.27469 82.92672 30307 ft 413 kts 266°
2026-04-26 17:53 56.27623 82.87585 30731 ft 410 kts 266°
2026-04-26 17:53 56.27776 82.82443 31114 ft 408 kts 266°
2026-04-26 17:53 56.27924 82.77387 31459 ft 407 kts 266°
2026-04-26 17:54 56.28212 82.67281 32052 ft 407 kts 266°
2026-04-26 17:54 56.28353 82.62222 32353 ft 406 kts 266°
2026-04-26 17:54 56.28494 82.57130 32662 ft 405 kts 266°
2026-04-26 17:54 56.28630 82.52091 32963 ft 404 kts 266°
2026-04-26 17:55 56.28764 82.47079 33217 ft 404 kts 266°
2026-04-26 17:55 56.28894 82.42057 33445 ft 404 kts 266°
2026-04-26 17:55 56.29025 82.37044 33693 ft 404 kts 266°
2026-04-26 17:55 56.29152 82.32009 33906 ft 405 kts 265°
2026-04-26 17:56 56.29280 82.26975 34125 ft 405 kts 265°
2026-04-26 17:56 56.29525 82.16846 34429 ft 408 kts 265°
2026-04-26 17:57 56.29765 82.06679 34652 ft 410 kts 266°
2026-04-26 17:57 56.29998 81.96460 34658 ft 412 kts 265°
2026-04-26 17:58 56.30435 81.75944 34663 ft 411 kts 265°
2026-04-26 17:59 56.30747 81.60500 34668 ft 412 kts 265°
2026-04-26 17:59 56.30939 81.50267 34660 ft 413 kts 265°
2026-04-26 18:00 56.31118 81.39980 34663 ft 413 kts 265°
2026-04-26 18:00 56.31286 81.29652 34677 ft 413 kts 264°
2026-04-26 18:01 56.31450 81.19322 34672 ft 413 kts 264°
2026-04-26 18:01 56.31600 81.09027 34678 ft 413 kts 264°
2026-04-26 18:02 56.31718 81.00450 34678 ft 414 kts 264°
2026-04-26 18:02 56.31873 80.88413 34675 ft 413 kts 264°
2026-04-26 18:03 56.31995 80.78177 34682 ft 411 kts 264°
2026-04-26 18:03 56.32118 80.67876 34693 ft 412 kts 264°
2026-04-26 18:04 56.32296 80.57594 34695 ft 413 kts 265°
2026-04-26 18:05 56.32546 80.42194 34694 ft 413 kts 264°
2026-04-26 18:05 56.32698 80.31828 34703 ft 413 kts 264°
2026-04-26 18:06 56.32838 80.21570 34700 ft 413 kts 264°
2026-04-26 18:06 56.32971 80.11251 34712 ft 413 kts 264°
2026-04-26 18:07 56.33091 80.00953 34716 ft 414 kts 264°
2026-04-26 18:07 56.33206 79.90585 34704 ft 415 kts 264°
2026-04-26 18:08 56.33310 79.80299 34705 ft 414 kts 264°
2026-04-26 18:08 56.33407 79.69920 34705 ft 414 kts 264°
2026-04-26 18:09 56.33496 79.59568 34711 ft 414 kts 264°
2026-04-26 18:09 56.33574 79.49266 34698 ft 414 kts 264°
2026-04-26 18:10 56.33646 79.38907 34700 ft 414 kts 264°
2026-04-26 18:10 56.33707 79.28604 34691 ft 414 kts 263°
2026-04-26 18:11 56.33761 79.18263 34694 ft 414 kts 263°
2026-04-26 18:11 56.33805 79.07988 34689 ft 414 kts 263°
2026-04-26 18:12 56.33840 78.97652 34690 ft 415 kts 263°
2026-04-26 18:12 56.33866 78.87305 34695 ft 414 kts 263°
2026-04-26 18:13 56.33886 78.76921 34696 ft 415 kts 263°
2026-04-26 18:13 56.33894 78.66613 34705 ft 415 kts 263°
2026-04-26 18:14 56.33893 78.56248 34700 ft 415 kts 263°
2026-04-26 18:14 56.33881 78.45867 34697 ft 415 kts 263°
2026-04-26 18:15 56.33862 78.35483 34708 ft 416 kts 263°
2026-04-26 18:15 56.33811 78.25150 34709 ft 415 kts 262°
2026-04-26 18:16 56.33734 78.14819 34719 ft 415 kts 262°
2026-04-26 18:16 56.33602 77.99277 34806 ft 415 kts 262°
2026-04-26 18:17 56.33501 77.88892 34746 ft 415 kts 262°
2026-04-26 18:17 56.33448 77.83727 34596 ft 415 kts 262°
2026-04-26 18:17 56.33389 77.78515 34654 ft 415 kts 262°
2026-04-26 18:18 56.33269 77.68156 34712 ft 416 kts 263°
2026-04-26 18:18 56.33141 77.57816 34712 ft 417 kts 263°
2026-04-26 18:19 56.33006 77.47415 34706 ft 417 kts 263°
2026-04-26 18:19 56.32932 77.42234 34900 ft 417 kts 263°
2026-04-26 18:19 56.32853 77.36993 34647 ft 416 kts 263°
2026-04-26 18:20 56.32772 77.31821 34800 ft 416 kts 262°
2026-04-26 18:20 56.32690 77.26662 34636 ft 415 kts 262°
2026-04-26 18:20 56.32545 77.18051 34657 ft 415 kts 262°
2026-04-26 18:21 56.32332 77.05958 34903 ft 416 kts 262°
2026-04-26 18:21 56.32236 77.00740 34691 ft 416 kts 262°
2026-04-26 18:21 56.32137 76.95566 34883 ft 417 kts 262°
2026-04-26 18:22 56.31935 76.85239 34783 ft 415 kts 262°
2026-04-26 18:22 56.31723 76.74888 34763 ft 415 kts 262°
2026-04-26 18:23 56.31502 76.64520 34759 ft 415 kts 262°
2026-04-26 18:23 56.31273 76.54206 34749 ft 416 kts 263°
2026-04-26 18:24 56.31037 76.43832 34751 ft 415 kts 263°
2026-04-26 18:24 56.30789 76.33459 34749 ft 416 kts 262°
2026-04-26 18:25 56.30538 76.23171 34759 ft 416 kts 262°
2026-04-26 18:25 56.30275 76.12806 34760 ft 415 kts 262°
2026-04-26 18:26 56.30005 76.02446 34780 ft 415 kts 262°
2026-04-26 18:26 56.29723 75.92120 34764 ft 415 kts 262°
2026-04-26 18:27 56.29433 75.81744 34775 ft 416 kts 262°
2026-04-26 18:27 56.29137 75.71441 34778 ft 417 kts 262°
2026-04-26 18:28 56.28829 75.61054 34779 ft 416 kts 262°
2026-04-26 18:28 56.28513 75.50660 34777 ft 416 kts 262°
2026-04-26 18:29 56.28189 75.40344 34776 ft 416 kts 262°
2026-04-26 18:29 56.27855 75.29966 34784 ft 416 kts 262°
2026-04-26 18:30 56.27514 75.19562 34785 ft 416 kts 262°
2026-04-26 18:30 56.27166 75.09265 34784 ft 417 kts 262°
2026-04-26 18:31 56.26807 74.98895 34797 ft 416 kts 262°
2026-04-26 18:31 56.26438 74.88523 34807 ft 416 kts 262°
2026-04-26 18:32 56.26063 74.78210 34797 ft 417 kts 262°
2026-04-26 18:32 56.25674 74.67815 34808 ft 417 kts 262°
2026-04-26 18:33 56.25279 74.57475 34810 ft 418 kts 262°
2026-04-26 18:33 56.24875 74.47059 34802 ft 418 kts 262°
2026-04-26 18:34 56.24461 74.36682 34814 ft 417 kts 262°
2026-04-26 18:34 56.24041 74.26363 34811 ft 418 kts 262°
2026-04-26 18:35 56.23611 74.16015 34818 ft 417 kts 262°
2026-04-26 18:35 56.23166 74.05644 34816 ft 417 kts 262°
2026-04-26 18:36 56.22725 73.95259 34813 ft 419 kts 263°
2026-04-26 18:36 56.22609 73.84878 34822 ft 420 kts 266°
2026-04-26 18:37 56.22584 73.74398 34814 ft 420 kts 266°
2026-04-26 18:37 56.22546 73.63914 34801 ft 420 kts 266°
2026-04-26 18:38 56.22498 73.53484 34805 ft 421 kts 266°
2026-04-26 18:38 56.22440 73.43027 34812 ft 421 kts 266°
2026-04-26 18:39 56.22373 73.32512 34818 ft 421 kts 265°
2026-04-26 18:39 56.22297 73.22041 34821 ft 421 kts 265°
2026-04-26 18:40 56.22214 73.11572 34824 ft 421 kts 265°
2026-04-26 18:40 56.22120 73.01101 34824 ft 421 kts 266°
2026-04-26 18:41 56.22018 72.90654 34832 ft 421 kts 266°
2026-04-26 18:41 56.21907 72.80167 34838 ft 421 kts 266°
2026-04-26 18:42 56.21787 72.69705 34839 ft 421 kts 266°
2026-04-26 18:42 56.21657 72.59209 34838 ft 420 kts 266°
2026-04-26 18:43 56.21520 72.48789 34835 ft 421 kts 266°
2026-04-26 18:43 56.21373 72.38296 34841 ft 421 kts 266°
2026-04-26 18:44 56.21217 72.27876 34839 ft 420 kts 265°
2026-04-26 18:44 56.21055 72.17461 34841 ft 420 kts 265°
2026-04-26 18:45 56.20880 72.07011 34846 ft 421 kts 266°
2026-04-26 18:45 56.20699 71.96519 34844 ft 421 kts 266°
2026-04-26 18:46 56.20510 71.86092 34846 ft 421 kts 265°
2026-04-26 18:46 56.20309 71.75597 34853 ft 420 kts 266°
2026-04-26 18:47 56.20105 71.65360 34852 ft 420 kts 266°
2026-04-26 18:47 56.19977 71.59167 34852 ft 420 kts 266°
2026-04-26 18:48 56.19756 71.48792 34858 ft 420 kts 266°
2026-04-26 18:48 56.19517 71.38323 34861 ft 420 kts 266°
2026-04-26 18:49 56.19278 71.27904 34862 ft 420 kts 265°
2026-04-26 18:49 56.19033 71.17411 34866 ft 421 kts 265°
2026-04-26 18:50 56.18780 71.07004 34872 ft 421 kts 265°
2026-04-26 18:50 56.18514 70.96526 34867 ft 421 kts 265°
2026-04-26 18:51 56.18239 70.86101 34861 ft 421 kts 265°
2026-04-26 18:51 56.17955 70.75692 34869 ft 420 kts 265°
2026-04-26 18:52 56.17661 70.65199 34869 ft 420 kts 265°
2026-04-26 18:52 56.17360 70.54778 34875 ft 420 kts 265°
2026-04-26 18:53 56.17051 70.44386 34877 ft 420 kts 266°
2026-04-26 18:53 56.16729 70.33894 35029 ft 422 kts 265°
2026-04-26 18:54 56.16567 70.28705 35249 ft 421 kts 265°
2026-04-26 18:54 56.16403 70.23511 35432 ft 421 kts 265°
2026-04-26 18:54 56.16235 70.18285 35548 ft 422 kts 265°
2026-04-26 18:54 56.16063 70.12997 35650 ft 424 kts 265°
2026-04-26 18:55 56.15711 70.02444 35859 ft 426 kts 265°
2026-04-26 18:55 56.15349 69.91878 35889 ft 427 kts 265°
2026-04-26 18:56 56.14978 69.81332 35897 ft 427 kts 265°
2026-04-26 18:56 56.14597 69.70740 35907 ft 426 kts 265°
2026-04-26 18:57 56.14373 69.61944 35899 ft 427 kts 268°
2026-04-26 18:57 56.14289 69.49582 35893 ft 427 kts 270°
2026-04-26 18:58 56.14707 69.38977 35901 ft 428 kts 276°
2026-04-26 18:58 56.15663 69.28519 35903 ft 429 kts 278°
2026-04-26 18:59 56.16750 69.18024 35904 ft 429 kts 278°
2026-04-26 18:59 56.17829 69.07541 35904 ft 428 kts 278°
2026-04-26 19:00 56.18897 68.97066 35904 ft 428 kts 278°
2026-04-26 19:00 56.19950 68.86643 35912 ft 428 kts 278°
2026-04-26 19:01 56.20997 68.76168 35908 ft 428 kts 278°
2026-04-26 19:01 56.22037 68.65669 35913 ft 428 kts 278°
2026-04-26 19:02 56.23069 68.55168 35903 ft 428 kts 278°
2026-04-26 19:02 56.23918 68.46458 35900 ft 428 kts 278°
2026-04-26 19:03 56.25098 68.34235 35906 ft 428 kts 278°
2026-04-26 19:03 56.26099 68.23737 35905 ft 428 kts 278°
2026-04-26 19:04 56.27095 68.13210 35907 ft 427 kts 278°
2026-04-26 19:04 56.28072 68.02773 35908 ft 427 kts 278°
2026-04-26 19:05 56.29532 67.87006 35917 ft 427 kts 278°
2026-04-26 19:06 56.30490 67.76537 35916 ft 426 kts 278°
2026-04-26 19:06 56.31441 67.66045 35926 ft 427 kts 278°
2026-04-26 19:07 56.32389 67.55492 35923 ft 426 kts 278°
2026-04-26 19:07 56.33317 67.45046 35920 ft 426 kts 278°
2026-04-26 19:08 56.34244 67.34506 35924 ft 426 kts 277°
2026-04-26 19:08 56.35153 67.24040 35922 ft 426 kts 277°
2026-04-26 19:09 56.36056 67.13533 35914 ft 426 kts 277°
2026-04-26 19:09 56.36950 67.03028 35923 ft 426 kts 277°
2026-04-26 19:10 56.37839 66.92497 35927 ft 426 kts 277°
2026-04-26 19:10 56.38713 66.82008 35926 ft 426 kts 277°
2026-04-26 19:11 56.39581 66.71483 35925 ft 425 kts 277°
2026-04-26 19:11 56.40439 66.60932 35929 ft 425 kts 277°
2026-04-26 19:12 56.41289 66.50401 35933 ft 425 kts 278°
2026-04-26 19:12 56.42141 66.39916 35929 ft 425 kts 278°
2026-04-26 19:13 56.42979 66.29420 35932 ft 425 kts 277°
2026-04-26 19:13 56.43808 66.18867 35929 ft 425 kts 277°
2026-04-26 19:14 56.44628 66.08307 35929 ft 425 kts 277°
2026-04-26 19:14 56.45432 65.97823 35931 ft 425 kts 277°
2026-04-26 19:15 56.46233 65.87237 35938 ft 425 kts 277°
2026-04-26 19:15 56.47026 65.76664 35938 ft 425 kts 277°
2026-04-26 19:16 56.47811 65.66177 35933 ft 425 kts 277°
2026-04-26 19:16 56.48588 65.55602 35933 ft 425 kts 277°
2026-04-26 19:17 56.49349 65.45070 35940 ft 425 kts 277°
2026-04-26 19:17 56.50106 65.34489 35938 ft 425 kts 276°
2026-04-26 19:18 56.50862 65.23957 35944 ft 424 kts 277°
2026-04-26 19:18 56.51607 65.13411 35939 ft 424 kts 276°
2026-04-26 19:19 56.52339 65.02890 35935 ft 424 kts 276°
2026-04-26 19:19 56.53063 64.92318 35936 ft 424 kts 277°
2026-04-26 19:20 56.53779 64.81726 35934 ft 424 kts 277°
2026-04-26 19:20 56.54484 64.71171 35946 ft 423 kts 277°
2026-04-26 19:21 56.55179 64.60623 35938 ft 423 kts 277°
2026-04-26 19:21 56.55865 64.50073 35950 ft 422 kts 277°
2026-04-26 19:22 56.56541 64.39530 35948 ft 423 kts 277°
2026-04-26 19:22 56.57204 64.29033 35944 ft 423 kts 276°
2026-04-26 19:23 56.57861 64.18471 35934 ft 423 kts 276°
2026-04-26 19:23 56.58511 64.07882 35939 ft 423 kts 276°
2026-04-26 19:24 56.59153 63.97294 35942 ft 423 kts 276°
2026-04-26 19:24 56.60092 63.81490 35949 ft 422 kts 276°
2026-04-26 19:25 56.60603 63.72720 35941 ft 421 kts 276°
2026-04-26 19:25 56.61311 63.60440 35944 ft 421 kts 276°
2026-04-26 19:26 56.61916 63.49921 35941 ft 421 kts 276°
2026-04-26 19:26 56.62510 63.39405 35961 ft 420 kts 276°
2026-04-26 19:27 56.63095 63.28896 35955 ft 420 kts 276°
2026-04-26 19:27 56.63674 63.18419 35960 ft 420 kts 276°
2026-04-26 19:28 56.64244 63.07901 35955 ft 419 kts 276°
2026-04-26 19:28 56.64803 62.97400 35957 ft 419 kts 276°
2026-04-26 19:29 56.65352 62.86895 35962 ft 419 kts 276°
2026-04-26 19:29 56.65889 62.76462 35951 ft 418 kts 276°
2026-04-26 19:30 56.66420 62.65960 35964 ft 418 kts 276°
2026-04-26 19:30 56.66853 62.57246 35956 ft 418 kts 276°
2026-04-26 19:31 56.67453 62.44964 35964 ft 418 kts 276°
2026-04-26 19:31 56.67954 62.34535 35955 ft 418 kts 275°
2026-04-26 19:32 56.68445 62.24049 35953 ft 418 kts 275°
2026-04-26 19:32 56.68932 62.13524 35950 ft 417 kts 275°
2026-04-26 19:33 56.69405 62.03086 35955 ft 417 kts 275°
2026-04-26 19:33 56.69872 61.92600 35962 ft 416 kts 275°
2026-04-26 19:34 56.70329 61.82136 35954 ft 416 kts 275°
2026-04-26 19:34 56.70775 61.71747 35963 ft 416 kts 275°
2026-04-26 19:35 56.71216 61.61248 35951 ft 415 kts 275°
2026-04-26 19:35 56.71643 61.50875 35956 ft 415 kts 275°
2026-04-26 19:36 56.71997 61.42133 35950 ft 415 kts 275°
2026-04-26 19:36 56.72477 61.29958 35955 ft 415 kts 275°
2026-04-26 19:37 56.72877 61.19545 35957 ft 414 kts 275°
2026-04-26 19:37 56.73268 61.09153 35953 ft 414 kts 275°
2026-04-26 19:38 56.73656 60.98689 35958 ft 414 kts 274°
2026-04-26 19:38 56.74029 60.88248 35967 ft 415 kts 274°
2026-04-26 19:39 56.74475 60.77859 35975 ft 414 kts 277°
2026-04-26 19:39 56.75203 60.67480 35969 ft 413 kts 278°
2026-04-26 19:40 56.75932 60.57116 35962 ft 413 kts 278°
2026-04-26 19:40 56.76648 60.46810 35972 ft 412 kts 278°
2026-04-26 19:41 56.77356 60.36480 35954 ft 412 kts 278°
2026-04-26 19:41 56.77937 60.27869 35962 ft 411 kts 277°
2026-04-26 19:42 56.78735 60.15904 35959 ft 412 kts 277°
2026-04-26 19:42 56.79389 60.05567 35950 ft 411 kts 277°
2026-04-26 19:43 56.80014 59.95233 35948 ft 411 kts 276°
2026-04-26 19:43 56.80628 59.84945 35941 ft 411 kts 277°
2026-04-26 19:44 56.81237 59.74606 35937 ft 410 kts 277°
2026-04-26 19:44 56.81840 59.64275 35946 ft 410 kts 277°
2026-04-26 19:45 56.82428 59.54015 35953 ft 410 kts 276°
2026-04-26 19:45 56.83012 59.43676 35959 ft 410 kts 276°
2026-04-26 19:46 56.83585 59.33360 35956 ft 409 kts 276°
2026-04-26 19:46 56.84145 59.23100 35945 ft 409 kts 276°
2026-04-26 19:47 56.84605 59.14541 35956 ft 409 kts 276°
2026-04-26 19:47 56.85107 59.02543 35949 ft 408 kts 272°
2026-04-26 19:48 56.85305 58.92217 35948 ft 408 kts 272°
2026-04-26 19:48 56.85490 58.81891 35943 ft 407 kts 272°
2026-04-26 19:49 56.85665 58.71652 35949 ft 406 kts 272°
2026-04-26 19:49 56.85831 58.61356 35933 ft 406 kts 272°
2026-04-26 19:50 56.85990 58.51038 35939 ft 407 kts 272°
2026-04-26 19:50 56.86139 58.40798 35937 ft 407 kts 272°
2026-04-26 19:51 56.86279 58.30463 35924 ft 407 kts 271°
2026-04-26 19:51 56.86411 58.20208 35926 ft 407 kts 271°
2026-04-26 19:52 56.86536 58.09873 35931 ft 406 kts 271°
2026-04-26 19:52 56.86650 57.99654 35929 ft 406 kts 271°
2026-04-26 19:53 56.86758 57.89336 35929 ft 406 kts 271°
2026-04-26 19:53 56.86857 57.79113 35929 ft 406 kts 271°
2026-04-26 19:54 56.86947 57.68814 35930 ft 405 kts 271°
2026-04-26 19:54 56.87029 57.58585 35921 ft 405 kts 271°
2026-04-26 19:55 56.87102 57.48294 35925 ft 405 kts 271°
2026-04-26 19:55 56.87166 57.38062 35919 ft 405 kts 271°
2026-04-26 19:56 56.87220 57.27830 35913 ft 405 kts 270°
2026-04-26 19:56 56.87269 57.17541 35914 ft 405 kts 270°
2026-04-26 19:57 56.87310 57.07318 35915 ft 405 kts 270°
2026-04-26 19:57 56.87341 56.97029 35914 ft 406 kts 270°
2026-04-26 19:58 56.87364 56.86766 35917 ft 406 kts 270°
2026-04-26 19:58 56.87378 56.76541 35913 ft 405 kts 270°
2026-04-26 19:59 56.87384 56.66257 35913 ft 405 kts 270°
2026-04-26 19:59 56.87380 56.56065 35912 ft 404 kts 270°
2026-04-26 20:00 56.87368 56.45814 35915 ft 404 kts 270°
2026-04-26 20:00 56.87445 56.35573 35907 ft 404 kts 271°
2026-04-26 20:01 56.87558 56.25381 35912 ft 404 kts 270°
2026-04-26 20:01 56.87655 56.15189 35897 ft 404 kts 270°
2026-04-26 20:02 56.87739 56.04911 35900 ft 404 kts 270°
2026-04-26 20:02 56.87801 55.96385 35912 ft 403 kts 270°
2026-04-26 20:03 56.87840 55.89671 35685 ft 398 kts 270°
2026-04-26 20:03 56.87804 55.84607 35181 ft 398 kts 268°
2026-04-26 20:03 56.87738 55.79591 34605 ft 399 kts 268°
2026-04-26 20:03 56.87668 55.74585 34056 ft 397 kts 268°
2026-04-26 20:04 56.87597 55.69596 33494 ft 396 kts 268°
2026-04-26 20:04 56.87526 55.64543 32808 ft 397 kts 269°
2026-04-26 20:04 56.87456 55.59555 32014 ft 399 kts 269°
2026-04-26 20:04 56.87383 55.54476 31148 ft 401 kts 269°
2026-04-26 20:05 56.87311 55.49427 30201 ft 404 kts 269°
2026-04-26 20:05 56.87236 55.44349 29315 ft 403 kts 269°
2026-04-26 20:05 56.87158 55.39251 28641 ft 399 kts 269°
2026-04-26 20:05 56.87080 55.34263 28099 ft 395 kts 268°
2026-04-26 20:06 56.87001 55.29225 27884 ft 396 kts 268°
2026-04-26 20:06 56.86921 55.24239 27888 ft 397 kts 268°
2026-04-26 20:06 56.86838 55.19242 27889 ft 397 kts 268°
2026-04-26 20:06 56.86751 55.14149 27887 ft 400 kts 268°
2026-04-26 20:07 56.86663 55.09040 27884 ft 410 kts 268°
2026-04-26 20:07 56.86569 55.03827 27882 ft 415 kts 268°
2026-04-26 20:07 56.86472 54.98518 27881 ft 417 kts 268°
2026-04-26 20:07 56.86373 54.93276 27887 ft 417 kts 268°
2026-04-26 20:08 56.86273 54.88027 27886 ft 417 kts 268°
2026-04-26 20:08 56.86170 54.82770 27890 ft 417 kts 268°
2026-04-26 20:08 56.86063 54.77449 27874 ft 417 kts 268°
2026-04-26 20:08 56.85955 54.72207 27878 ft 417 kts 268°
2026-04-26 20:09 56.85843 54.66890 27878 ft 417 kts 268°
2026-04-26 20:09 56.85731 54.61620 27880 ft 417 kts 268°
2026-04-26 20:09 56.85636 54.56353 27875 ft 417 kts 269°
2026-04-26 20:09 56.85571 54.51100 27870 ft 417 kts 269°
2026-04-26 20:10 56.85509 54.45845 27871 ft 417 kts 269°
2026-04-26 20:10 56.85443 54.40517 27876 ft 417 kts 269°
2026-04-26 20:10 56.85371 54.35255 27873 ft 417 kts 269°
2026-04-26 20:10 56.85296 54.29994 27872 ft 417 kts 268°
2026-04-26 20:11 56.85217 54.24719 27860 ft 417 kts 268°
2026-04-26 20:11 56.85138 54.19463 27867 ft 417 kts 268°
2026-04-26 20:11 56.85053 54.14151 27861 ft 417 kts 268°
2026-04-26 20:12 56.84847 54.03626 27875 ft 417 kts 268°
2026-04-26 20:12 56.84722 53.98309 27863 ft 416 kts 268°
2026-04-26 20:12 56.84594 53.93055 27853 ft 417 kts 267°
2026-04-26 20:12 56.84467 53.87814 27853 ft 417 kts 267°
2026-04-26 20:13 56.84338 53.82563 27857 ft 417 kts 268°
2026-04-26 20:13 56.84204 53.77238 27856 ft 417 kts 268°
2026-04-26 20:13 56.84071 53.71973 27850 ft 417 kts 268°
2026-04-26 20:13 56.83936 53.66716 27852 ft 417 kts 267°
2026-04-26 20:14 56.83799 53.61482 27849 ft 417 kts 267°
2026-04-26 20:14 56.83656 53.56158 27847 ft 418 kts 267°
2026-04-26 20:14 56.83513 53.50913 27847 ft 418 kts 268°
2026-04-26 20:14 56.83392 53.45641 27841 ft 418 kts 269°
2026-04-26 20:15 56.83375 53.40296 27846 ft 418 kts 270°
2026-04-26 20:15 56.83379 53.35027 27852 ft 418 kts 270°
2026-04-26 20:15 56.83380 53.29739 27833 ft 419 kts 269°
2026-04-26 20:15 56.83382 53.24458 27834 ft 419 kts 269°
2026-04-26 20:16 56.83380 53.19188 27828 ft 419 kts 269°
2026-04-26 20:16 56.83377 53.13831 27825 ft 420 kts 269°
2026-04-26 20:16 56.83371 53.08544 27820 ft 420 kts 269°
2026-04-26 20:16 56.83361 53.03256 27830 ft 420 kts 269°
2026-04-26 20:17 56.83349 52.97887 27814 ft 420 kts 269°
2026-04-26 20:17 56.83335 52.92608 27813 ft 420 kts 269°
2026-04-26 20:17 56.83310 52.87331 27817 ft 420 kts 269°
2026-04-26 20:17 56.83276 52.81953 27809 ft 421 kts 269°
2026-04-26 20:18 56.83241 52.76662 27806 ft 421 kts 269°
2026-04-26 20:18 56.83202 52.71304 27806 ft 421 kts 269°
2026-04-26 20:18 56.83162 52.66006 27802 ft 421 kts 269°
2026-04-26 20:18 56.83120 52.60724 27805 ft 421 kts 269°
2026-04-26 20:19 56.83075 52.55347 27804 ft 421 kts 269°
2026-04-26 20:19 56.83028 52.50063 27807 ft 421 kts 269°
2026-04-26 20:19 56.82979 52.44682 27797 ft 421 kts 269°
2026-04-26 20:19 56.82928 52.39376 27800 ft 421 kts 269°
2026-04-26 20:20 56.82874 52.34081 27811 ft 421 kts 268°
2026-04-26 20:20 56.82816 52.28722 27801 ft 421 kts 268°
2026-04-26 20:20 56.82758 52.23432 27797 ft 421 kts 268°
2026-04-26 20:20 56.82721 52.18141 27791 ft 421 kts 269°
2026-04-26 20:21 56.82784 52.12769 27803 ft 421 kts 271°
2026-04-26 20:21 56.82864 52.07469 27789 ft 422 kts 270°
2026-04-26 20:21 56.82944 52.02160 27789 ft 421 kts 270°
2026-04-26 20:21 56.83021 51.96838 27788 ft 421 kts 271°
2026-04-26 20:22 56.83096 51.91457 27786 ft 422 kts 271°
2026-04-26 20:22 56.83169 51.86142 27781 ft 422 kts 270°
2026-04-26 20:22 56.83239 51.80804 27784 ft 422 kts 270°
2026-04-26 20:22 56.83306 51.75480 27787 ft 422 kts 271°
2026-04-26 20:23 56.83372 51.70162 27774 ft 422 kts 270°
2026-04-26 20:23 56.83434 51.64769 27775 ft 423 kts 270°
2026-04-26 20:23 56.83494 51.59441 27777 ft 422 kts 270°
2026-04-26 20:23 56.83508 51.54120 27781 ft 422 kts 268°
2026-04-26 20:24 56.83378 51.48793 27755 ft 422 kts 266°
2026-04-26 20:24 56.83187 51.43480 27763 ft 422 kts 266°
2026-04-26 20:24 56.82986 51.38099 27763 ft 422 kts 266°
2026-04-26 20:24 56.82784 51.32787 27769 ft 422 kts 265°
2026-04-26 20:25 56.82582 51.27501 27765 ft 422 kts 265°
2026-04-26 20:25 56.82445 51.23953 27758 ft 422 kts 265°
2026-04-26 20:25 56.82167 51.16848 27754 ft 422 kts 265°
2026-04-26 20:25 56.81957 51.11544 27752 ft 422 kts 265°
2026-04-26 20:26 56.81743 51.06190 27755 ft 422 kts 265°
2026-04-26 20:26 56.81529 51.00899 27747 ft 422 kts 265°
2026-04-26 20:26 56.81310 50.95524 27749 ft 422 kts 265°
2026-04-26 20:26 56.81089 50.90213 27762 ft 422 kts 265°
2026-04-26 20:27 56.80867 50.84914 27749 ft 422 kts 265°
2026-04-26 20:27 56.80643 50.79615 27743 ft 423 kts 265°
2026-04-26 20:27 56.80414 50.74253 27750 ft 422 kts 265°
2026-04-26 20:27 56.80186 50.68960 27746 ft 422 kts 265°
2026-04-26 20:28 56.79953 50.63603 27737 ft 422 kts 265°
2026-04-26 20:28 56.79720 50.58292 27733 ft 422 kts 265°
2026-04-26 20:28 56.79485 50.52990 27736 ft 422 kts 264°
2026-04-26 20:28 56.79248 50.47700 27730 ft 423 kts 264°
2026-04-26 20:29 56.79005 50.42319 27729 ft 423 kts 264°
2026-04-26 20:29 56.78761 50.37006 27723 ft 423 kts 264°
2026-04-26 20:29 56.78514 50.31649 27728 ft 423 kts 263°
2026-04-26 20:29 56.78268 50.26364 27721 ft 423 kts 263°
2026-04-26 20:30 56.78017 50.20993 27719 ft 424 kts 263°
2026-04-26 20:30 56.77765 50.15673 27718 ft 423 kts 264°
2026-04-26 20:30 56.77512 50.10379 27713 ft 423 kts 263°
2026-04-26 20:30 56.77255 50.05062 27707 ft 423 kts 263°
2026-04-26 20:31 56.76996 49.99731 27706 ft 423 kts 263°
2026-04-26 20:31 56.76730 49.94363 27706 ft 423 kts 263°
2026-04-26 20:31 56.76466 49.89055 27717 ft 423 kts 263°
2026-04-26 20:31 56.76203 49.83747 27706 ft 424 kts 264°
2026-04-26 20:32 56.76027 49.78368 27707 ft 424 kts 265°
2026-04-26 20:32 56.75890 49.73036 27705 ft 424 kts 265°
2026-04-26 20:32 56.75752 49.67707 27700 ft 425 kts 265°
2026-04-26 20:32 56.75609 49.62305 27701 ft 425 kts 265°
2026-04-26 20:33 56.75467 49.56987 27697 ft 425 kts 265°
2026-04-26 20:33 56.75322 49.51671 27693 ft 423 kts 265°
2026-04-26 20:33 56.75175 49.46328 27695 ft 420 kts 265°
2026-04-26 20:33 56.75028 49.41063 27702 ft 420 kts 265°
2026-04-26 20:34 56.74875 49.35734 27696 ft 419 kts 265°
2026-04-26 20:34 56.74722 49.30457 27694 ft 419 kts 264°
2026-04-26 20:34 56.74568 49.25185 27691 ft 419 kts 264°
2026-04-26 20:34 56.74412 49.19921 27686 ft 420 kts 264°
2026-04-26 20:35 56.74252 49.14581 27685 ft 420 kts 264°
2026-04-26 20:35 56.74090 49.09309 27673 ft 421 kts 264°
2026-04-26 20:35 56.73925 49.03972 27672 ft 421 kts 264°
2026-04-26 20:35 56.73758 48.98691 27677 ft 421 kts 264°
2026-04-26 20:36 56.73591 48.93436 27672 ft 421 kts 264°
2026-04-26 20:36 56.73418 48.88090 27671 ft 421 kts 264°
2026-04-26 20:36 56.73244 48.82801 27667 ft 421 kts 264°
2026-04-26 20:36 56.73068 48.77517 27670 ft 421 kts 264°
2026-04-26 20:37 56.72890 48.72236 27663 ft 421 kts 264°
2026-04-26 20:37 56.72707 48.66883 27652 ft 421 kts 264°
2026-04-26 20:37 56.72523 48.61599 27649 ft 421 kts 264°
2026-04-26 20:37 56.72339 48.56325 27647 ft 421 kts 264°
2026-04-26 20:38 56.72154 48.51040 27644 ft 421 kts 264°
2026-04-26 20:38 56.71965 48.45690 27637 ft 421 kts 264°
2026-04-26 20:38 56.71776 48.40408 27634 ft 422 kts 264°
2026-04-26 20:38 56.71584 48.35128 27636 ft 421 kts 264°
2026-04-26 20:39 56.71388 48.29788 27633 ft 421 kts 263°
2026-04-26 20:39 56.71193 48.24509 27630 ft 422 kts 263°
2026-04-26 20:39 56.70995 48.19230 27634 ft 422 kts 263°
2026-04-26 20:39 56.70792 48.13882 27634 ft 421 kts 263°
2026-04-26 20:40 56.70589 48.08611 27630 ft 421 kts 263°
2026-04-26 20:40 56.70384 48.03345 27631 ft 421 kts 263°
2026-04-26 20:40 56.70177 47.98067 27631 ft 421 kts 263°
2026-04-26 20:40 56.69964 47.92721 27626 ft 421 kts 263°
2026-04-26 20:41 56.69751 47.87435 27626 ft 421 kts 263°
2026-04-26 20:41 56.69536 47.82162 27617 ft 421 kts 262°
2026-04-26 20:41 56.69317 47.76825 27621 ft 422 kts 263°
2026-04-26 20:41 56.69098 47.71558 27620 ft 422 kts 263°
2026-04-26 20:42 56.68876 47.66274 27618 ft 423 kts 263°
2026-04-26 20:42 56.68648 47.60915 27606 ft 423 kts 262°
2026-04-26 20:42 56.68421 47.55622 27609 ft 423 kts 263°
2026-04-26 20:42 56.68190 47.50315 27610 ft 427 kts 262°
2026-04-26 20:43 56.67950 47.44867 27744 ft 433 kts 263°
2026-04-26 20:43 56.67707 47.39433 27976 ft 435 kts 262°
2026-04-26 20:43 56.67340 47.34022 28330 ft 433 kts 257°
2026-04-26 20:43 56.66773 47.28704 28761 ft 430 kts 254°
2026-04-26 20:44 56.66017 47.23508 29191 ft 426 kts 250°
2026-04-26 20:44 56.65080 47.18440 29605 ft 424 kts 248°
2026-04-26 20:44 56.64093 47.13449 30020 ft 422 kts 248°
2026-04-26 20:44 56.63088 47.08416 30421 ft 420 kts 248°
2026-04-26 20:45 56.62093 47.03461 30826 ft 419 kts 248°
2026-04-26 20:45 56.61099 46.98526 31211 ft 417 kts 248°
2026-04-26 20:45 56.60106 46.93608 31582 ft 416 kts 248°
2026-04-26 20:45 56.59161 46.88932 31933 ft 414 kts 247°
2026-04-26 20:46 56.58177 46.84073 32290 ft 412 kts 247°
2026-04-26 20:46 56.57192 46.79230 32635 ft 410 kts 247°
2026-04-26 20:46 56.56211 46.74424 32972 ft 409 kts 248°
2026-04-26 20:46 56.55230 46.69627 33272 ft 407 kts 247°
2026-04-26 20:47 56.54254 46.64865 33560 ft 405 kts 247°
2026-04-26 20:47 56.53605 46.61699 33841 ft 400 kts 247°
2026-04-26 20:47 56.52330 46.55500 34522 ft 389 kts 248°
2026-04-26 20:47 56.51396 46.50970 34850 ft 386 kts 248°
2026-04-26 20:48 56.50466 46.46477 35063 ft 385 kts 247°
2026-04-26 20:48 56.49518 46.41909 35210 ft 386 kts 247°
2026-04-26 20:48 56.48580 46.37397 35349 ft 387 kts 247°
2026-04-26 20:48 56.47633 46.32858 35505 ft 388 kts 246°
2026-04-26 20:49 56.46686 46.28310 35658 ft 389 kts 246°
2026-04-26 20:49 56.45732 46.23744 35813 ft 390 kts 246°
2026-04-26 20:49 56.44770 46.19144 35955 ft 390 kts 246°
2026-04-26 20:49 56.43809 46.14570 36075 ft 392 kts 246°
2026-04-26 20:50 56.42842 46.09975 36193 ft 393 kts 246°
2026-04-26 20:50 56.41871 46.05381 36317 ft 394 kts 246°
2026-04-26 20:50 56.40901 46.00799 36442 ft 394 kts 246°
2026-04-26 20:50 56.39920 45.96182 36549 ft 396 kts 246°
2026-04-26 20:51 56.38942 45.91579 36683 ft 396 kts 246°
2026-04-26 20:51 56.37958 45.86968 36806 ft 397 kts 246°
2026-04-26 20:51 56.36966 45.82323 36922 ft 398 kts 246°
2026-04-26 20:51 56.35971 45.77681 37045 ft 399 kts 246°
2026-04-26 20:52 56.34976 45.73047 37169 ft 400 kts 246°
2026-04-26 20:52 56.33975 45.68391 37279 ft 401 kts 246°
2026-04-26 20:52 56.32968 45.63727 37372 ft 402 kts 246°
2026-04-26 20:53 56.30947 45.54392 37477 ft 408 kts 246°
2026-04-26 20:53 56.28851 45.44760 37484 ft 415 kts 246°
2026-04-26 20:54 56.26737 45.35086 37482 ft 417 kts 246°
2026-04-26 20:54 56.24622 45.25389 37468 ft 419 kts 246°
2026-04-26 20:55 56.22492 45.15675 37463 ft 418 kts 245°
2026-04-26 20:55 56.20351 45.05980 37459 ft 418 kts 245°
2026-04-26 20:56 56.18213 44.96361 37454 ft 418 kts 245°
2026-04-26 20:56 56.16068 44.86759 37436 ft 418 kts 245°
2026-04-26 20:57 56.13908 44.77065 37431 ft 418 kts 246°
2026-04-26 20:57 56.12120 44.67166 37422 ft 421 kts 252°
2026-04-26 20:58 56.10885 44.56930 37417 ft 424 kts 257°
2026-04-26 20:58 56.10160 44.46411 37409 ft 428 kts 260°
2026-04-26 20:59 56.09522 44.35910 37406 ft 428 kts 260°
2026-04-26 20:59 56.08876 44.25329 37406 ft 428 kts 259°
2026-04-26 21:00 56.08224 44.14758 37399 ft 428 kts 259°
2026-04-26 21:00 56.07564 44.04228 37392 ft 428 kts 259°
2026-04-26 21:01 56.06890 43.93677 37390 ft 428 kts 259°
2026-04-26 21:01 56.06165 43.83173 37371 ft 427 kts 255°
2026-04-26 21:02 56.04560 43.73078 37378 ft 425 kts 249°
2026-04-26 21:02 56.02770 43.63043 37365 ft 426 kts 249°
2026-04-26 21:03 56.00975 43.52986 37362 ft 426 kts 249°
2026-04-26 21:03 55.99184 43.42957 37361 ft 425 kts 249°
2026-04-26 21:04 55.97382 43.32912 37350 ft 425 kts 249°
2026-04-26 21:04 55.95585 43.22913 37342 ft 425 kts 249°
2026-04-26 21:05 55.93780 43.12932 37337 ft 426 kts 249°
2026-04-26 21:05 55.91958 43.02911 37330 ft 426 kts 249°
2026-04-26 21:06 55.90129 42.92926 37313 ft 426 kts 249°
2026-04-26 21:06 55.88263 42.82899 37315 ft 426 kts 248°
2026-04-26 21:07 55.86398 42.72946 37308 ft 427 kts 249°
2026-04-26 21:07 55.84530 42.62948 37284 ft 427 kts 249°
2026-04-26 21:08 55.82659 42.52953 37281 ft 428 kts 249°
2026-04-26 21:08 55.80783 42.42982 37285 ft 428 kts 249°
2026-04-26 21:09 55.78893 42.32987 37269 ft 429 kts 248°
2026-04-26 21:09 55.77004 42.23004 37265 ft 429 kts 248°
2026-04-26 21:10 55.75099 42.13013 37249 ft 429 kts 248°
2026-04-26 21:10 55.73179 42.03005 37243 ft 429 kts 248°
2026-04-26 21:11 55.71253 41.93026 37236 ft 430 kts 248°
2026-04-26 21:11 55.69319 41.83053 37235 ft 429 kts 248°
2026-04-26 21:12 55.67376 41.73093 37227 ft 429 kts 248°
2026-04-26 21:12 55.65431 41.63159 37228 ft 429 kts 248°
2026-04-26 21:13 55.63468 41.53198 37208 ft 430 kts 248°
2026-04-26 21:13 55.61489 41.43216 37201 ft 431 kts 248°
2026-04-26 21:14 55.59655 41.33131 37189 ft 433 kts 251°
2026-04-26 21:14 55.58372 41.22763 37181 ft 435 kts 257°
2026-04-26 21:15 55.57691 41.12157 37181 ft 439 kts 262°
2026-04-26 21:15 55.57460 41.01382 37171 ft 440 kts 264°
2026-04-26 21:16 55.57261 40.90604 37159 ft 441 kts 264°
2026-04-26 21:16 55.57051 40.79818 36930 ft 443 kts 264°
2026-04-26 21:16 55.56943 40.74412 36446 ft 444 kts 264°
2026-04-26 21:17 55.56833 40.69006 35747 ft 447 kts 263°
2026-04-26 21:17 55.56720 40.63541 35277 ft 442 kts 263°
2026-04-26 21:17 55.56605 40.58174 34763 ft 439 kts 263°
2026-04-26 21:17 55.56486 40.52862 34241 ft 436 kts 263°
2026-04-26 21:18 55.56368 40.47573 33744 ft 433 kts 262°
2026-04-26 21:18 55.56239 40.42257 33280 ft 429 kts 262°
2026-04-26 21:18 55.56099 40.37050 32885 ft 426 kts 261°
2026-04-26 21:18 55.55953 40.31841 32476 ft 423 kts 260°
2026-04-26 21:19 55.55809 40.26701 32076 ft 420 kts 260°
2026-04-26 21:19 55.55663 40.21598 31666 ft 418 kts 259°
2026-04-26 21:19 55.55515 40.16502 31198 ft 419 kts 259°
2026-04-26 21:19 55.55361 40.11348 30445 ft 422 kts 259°
2026-04-26 21:20 55.55206 40.06248 29335 ft 423 kts 259°
2026-04-26 21:20 55.55135 40.01088 28283 ft 424 kts 262°
2026-04-26 21:20 55.55246 39.95880 27570 ft 418 kts 266°
2026-04-26 21:20 55.55496 39.90882 27227 ft 408 kts 267°
2026-04-26 21:21 55.55761 39.85946 27142 ft 407 kts 267°
2026-04-26 21:21 55.56025 39.81000 27155 ft 406 kts 267°
2026-04-26 21:21 55.56287 39.76093 26977 ft 401 kts 267°
2026-04-26 21:21 55.56341 39.75088 26881 ft 400 kts 267°
2026-04-26 21:22 55.56517 39.71692 26474 ft 398 kts 267°
2026-04-26 21:22 55.56768 39.66882 25909 ft 395 kts 268°
2026-04-26 21:22 55.57018 39.62107 25334 ft 391 kts 267°
2026-04-26 21:23 55.57507 39.52617 24163 ft 386 kts 267°
2026-04-26 21:23 55.57782 39.47921 23588 ft 386 kts 268°
2026-04-26 21:23 55.58089 39.43247 23041 ft 384 kts 268°
2026-04-26 21:23 55.58397 39.38609 22515 ft 381 kts 268°
2026-04-26 21:24 55.58699 39.33983 21972 ft 379 kts 268°
2026-04-26 21:24 55.58992 39.29420 21437 ft 376 kts 268°
2026-04-26 21:24 55.59290 39.24780 20969 ft 373 kts 266°
2026-04-26 21:24 55.59573 39.20306 20499 ft 369 kts 268°
2026-04-26 21:25 55.59853 39.15784 19996 ft 366 kts 268°
2026-04-26 21:25 55.60128 39.11342 19492 ft 364 kts 268°
2026-04-26 21:25 55.60396 39.06939 18965 ft 360 kts 266°
2026-04-26 21:25 55.60233 39.02678 18444 ft 339 kts 244°
2026-04-26 21:26 55.59125 38.99211 17967 ft 318 kts 222°
2026-04-26 21:26 55.57599 38.96443 17470 ft 314 kts 219°
2026-04-26 21:26 55.56634 38.94730 17117 ft 316 kts 220°
2026-04-26 21:26 55.56595 38.94661 16974 ft 316 kts 220°
2026-04-26 21:27 55.55061 38.91891 16556 ft 312 kts 221°
2026-04-26 21:27 55.53576 38.89155 16134 ft 308 kts 221°
2026-04-26 21:27 55.52119 38.86451 15674 ft 306 kts 221°
2026-04-26 21:27 55.50670 38.83747 15218 ft 304 kts 222°
2026-04-26 21:28 55.49227 38.81050 14763 ft 304 kts 222°
2026-04-26 21:28 55.47791 38.78363 14336 ft 302 kts 223°
2026-04-26 21:28 55.46352 38.75676 13845 ft 305 kts 223°
2026-04-26 21:28 55.44902 38.72964 13296 ft 307 kts 224°
2026-04-26 21:29 55.43443 38.70224 12806 ft 307 kts 224°
2026-04-26 21:29 55.41987 38.67491 12252 ft 309 kts 225°
2026-04-26 21:29 55.40522 38.64737 11737 ft 309 kts 224°
2026-04-26 21:29 55.39042 38.61958 11232 ft 308 kts 225°
2026-04-26 21:30 55.37579 38.59219 10911 ft 302 kts 225°
2026-04-26 21:30 55.36160 38.56573 10539 ft 298 kts 225°
2026-04-26 21:30 55.34741 38.53925 10163 ft 295 kts 225°
2026-04-26 21:30 55.33347 38.51328 9819 ft 290 kts 226°
2026-04-26 21:31 55.31974 38.48772 9441 ft 288 kts 226°
2026-04-26 21:31 55.30615 38.46258 9059 ft 286 kts 227°
2026-04-26 21:31 55.29253 38.43746 8675 ft 284 kts 229°
2026-04-26 21:31 55.27888 38.41213 8179 ft 287 kts 231°
2026-04-26 21:32 55.26517 38.38659 7974 ft 288 kts 231°
2026-04-26 21:32 55.25136 38.36086 7975 ft 290 kts 231°
2026-04-26 21:32 55.23714 38.33565 7965 ft 293 kts 223°
2026-04-26 21:32 55.21936 38.31863 7785 ft 294 kts 198°
2026-04-26 21:33 55.19902 38.31345 7343 ft 297 kts 184°
2026-04-26 21:33 55.17836 38.31206 6843 ft 301 kts 183°
2026-04-26 21:33 55.17457 38.31193 6759 ft 301 kts 182°
2026-04-26 21:33 55.15993 38.31154 6458 ft 301 kts 181°
2026-04-26 21:34 55.13906 38.31110 6030 ft 301 kts 182°
2026-04-26 21:34 55.11826 38.31109 5659 ft 299 kts 182°
2026-04-26 21:34 55.09753 38.31128 5317 ft 296 kts 182°
2026-04-26 21:34 55.09237 38.31136 5213 ft 296 kts 182°
2026-04-26 21:35 55.07970 38.31158 4962 ft 296 kts 182°
2026-04-26 21:35 55.05927 38.31036 4560 ft 290 kts 197°
2026-04-26 21:35 55.04397 38.29789 4209 ft 273 kts 229°
2026-04-26 21:35 55.04393 38.29782 4210 ft 273 kts 229°
2026-04-26 21:36 55.03451 38.27148 3884 ft 247 kts 265°
2026-04-26 21:36 55.03414 38.24295 3547 ft 231 kts 287°
2026-04-26 21:36 55.03553 38.23328 3429 ft 227 kts 294°
2026-04-26 21:36 55.03863 38.22060 3324 ft 219 kts 304°
2026-04-26 21:37 55.04773 38.20049 3180 ft 207 kts 320°
2026-04-26 21:37 55.05935 38.18789 2984 ft 190 kts 338°
2026-04-26 21:37 55.07144 38.18115 2976 ft 173 kts 340°
2026-04-26 21:37 55.08272 38.17495 3049 ft 169 kts 339°
2026-04-26 21:38 55.09368 38.16889 2997 ft 162 kts 339°
2026-04-26 21:38 55.10402 38.16320 2984 ft 149 kts 339°
2026-04-26 21:38 55.11371 38.15785 2979 ft 146 kts 339°
2026-04-26 21:38 55.12342 38.15245 2984 ft 147 kts 338°
2026-04-26 21:39 55.13319 38.14701 2970 ft 146 kts 338°
2026-04-26 21:39 55.13555 38.14570 2973 ft 146 kts 338°
2026-04-26 21:39 55.14177 38.14223 2971 ft 146 kts 339°
2026-04-26 21:39 55.15136 38.13689 2976 ft 146 kts 339°
2026-04-26 21:40 55.16106 38.13153 2977 ft 146 kts 339°
2026-04-26 21:40 55.17079 38.12615 2983 ft 146 kts 339°
2026-04-26 21:40 55.18039 38.12083 2979 ft 146 kts 339°
2026-04-26 21:40 55.19010 38.11544 2979 ft 146 kts 339°
2026-04-26 21:41 55.19983 38.11004 2985 ft 146 kts 339°
2026-04-26 21:41 55.20948 38.10468 2982 ft 145 kts 339°
2026-04-26 21:41 55.21918 38.09962 2986 ft 145 kts 341°
2026-04-26 21:41 55.22872 38.09456 2986 ft 145 kts 337°
2026-04-26 21:42 55.23757 38.08789 2996 ft 127 kts 332°
2026-04-26 21:42 55.24508 38.08083 2971 ft 115 kts 329°
2026-04-26 21:42 55.25142 38.07452 2966 ft 100 kts 328°
2026-04-26 21:42 55.25729 38.06839 2983 ft 98 kts 328°
2026-04-26 21:43 55.26316 38.06201 2987 ft 98 kts 327°
2026-04-26 21:43 55.26923 38.05522 3025 ft 111 kts 326°
2026-04-26 21:43 55.27580 38.04770 3012 ft 113 kts 325°
2026-04-26 21:43 55.28242 38.03994 2998 ft 114 kts 325°
2026-04-26 21:44 55.28901 38.03207 2998 ft 114 kts 325°
2026-04-26 21:44 55.29557 38.02416 2993 ft 114 kts 324°
2026-04-26 21:44 55.30203 38.01630 2890 ft 113 kts 325°
2026-04-26 21:44 55.30809 38.00891 2698 ft 100 kts 324°
2026-04-26 21:45 55.31381 38.00194 2560 ft 100 kts 324°
2026-04-26 21:45 55.31948 37.99502 2434 ft 100 kts 324°
2026-04-26 21:45 55.32525 37.98798 2291 ft 101 kts 324°
2026-04-26 21:45 55.33101 37.98096 2161 ft 102 kts 324°
2026-04-26 21:46 55.33689 37.97382 2018 ft 103 kts 323°
2026-04-26 21:46 55.34274 37.96673 1879 ft 103 kts 323°
2026-04-26 21:46 55.34873 37.95947 1737 ft 105 kts 323°
2026-04-26 21:46 55.35472 37.95222 1596 ft 106 kts 323°
2026-04-26 21:47 55.36084 37.94483 1450 ft 106 kts 323°